When you browse on this site, cookies collect data to enhance your experience and personalize the content and advertising you see.
Visit our Privacy Policy to learn more. By continuing to use the site, you agree to this use of cookies and data.
  • In Czech Republic
  • List of Countries
  • For 7 days
  • Water Temperature
  • Satellite Maps
  • Weather Map
  • Weather Widgets
  • user-avatar
    Login

    Hourly Weather Chelmsford

    Today, 24 January, Thursday

    Time Temperature Precipitation Wind Pressure Humidity
    00:00 -2°C° 0 mm 2 mps 753 mmHg 88%
    01:00 -2°C° 0 mm 2 mps 753 mmHg 86%
    02:00 -2°C° 0 mm 2 mps 753 mmHg 84%
    03:00 -2°C° 0 mm 2 mps 754 mmHg 83%
    04:00 -2°C° 0 mm 2 mps 754 mmHg 81%
    05:00 -2°C° 0 mm 2 mps 754 mmHg 80%
    06:00 -2°C° 0 mm 2 mps 754 mmHg 78%
    07:00 -1°C° 0 mm 2 mps 754 mmHg 78%
    08:00 -1°C° 0 mm 2 mps 754 mmHg 78%
    09:00 +1°C° 0 mm 2 mps 754 mmHg 77%
    10:00 +1°C° 0.1 mm 2 mps 754 mmHg 80%
    11:00 +1°C° 0.1 mm 3 mps 755 mmHg 82%
    12:00 +1°C° 0.1 mm 3 mps 755 mmHg 84%
    13:00 +3°C° 0 mm 2 mps 755 mmHg 86%
    14:00 +3°C° 0 mm 2 mps 755 mmHg 87%
    15:00 +4°C° 0 mm 2 mps 755 mmHg 88%
    16:00 +3°C° 0 mm 2 mps 755 mmHg 90%
    17:00 +2°C° 0 mm 2 mps 755 mmHg 92%
    18:00 +3°C° 0 mm 1 mps 756 mmHg 93%
    19:00 +2°C° 0 mm 1 mps 756 mmHg 93%
    20:00 +2°C° 0 mm 1 mps 756 mmHg 93%
    21:00 +2°C° 0 mm 1 mps 757 mmHg 94%
    22:00 +1°C° 0 mm 1 mps 757 mmHg 93%
    23:00 +1°C° 0 mm 1 mps 757 mmHg 93%

    Tomorrow, 25 January, Friday

    Time Temperature Precipitation Wind Pressure Humidity
    00:00 +1°C° 0 mm 1 mps 758 mmHg 93%
    01:00 +1°C° 0 mm 1 mps 758 mmHg 92%
    02:00 +1°C° 0 mm 1 mps 758 mmHg 92%
    03:00 +1°C° 0 mm 1 mps 758 mmHg 91%
    04:00 +1°C° 0 mm 1 mps 758 mmHg 91%
    05:00 +1°C° 0 mm 1 mps 758 mmHg 91%
    06:00 +1°C° 0 mm 1 mps 758 mmHg 91%
    07:00 +1°C° 0.1 mm 2 mps 758 mmHg 90%
    08:00 +1°C° 0.1 mm 3 mps 758 mmHg 89%
    09:00 +1°C° 0.1 mm 3 mps 758 mmHg 88%
    10:00 +1°C° 0 mm 4 mps 759 mmHg 90%
    11:00 +3°C° 0 mm 4 mps 759 mmHg 91%
    12:00 +3°C° 0 mm 4 mps 759 mmHg 92%
    13:00 +4°C° 0 mm 4 mps 759 mmHg 93%
    14:00 +5°C° 0 mm 4 mps 758 mmHg 94%
    15:00 +5°C° 0 mm 3 mps 758 mmHg 95%
    16:00 +5°C° 0 mm 3 mps 758 mmHg 95%
    17:00 +5°C° 0 mm 4 mps 759 mmHg 95%
    18:00 +4°C° 0 mm 4 mps 759 mmHg 95%
    19:00 +4°C° 0 mm 4 mps 759 mmHg 95%
    20:00 +4°C° 0 mm 3 mps 759 mmHg 96%
    21:00 +4°C° 0 mm 3 mps 759 mmHg 96%
    22:00 +4°C° 0 mm 3 mps 759 mmHg 96%
    23:00 +3°C° 0 mm 3 mps 759 mmHg 96%

    Day after tomorrow, 26 January, Saturday

    Time Temperature Precipitation Wind Pressure Humidity
    00:00 +3°C° 0 mm 4 mps 759 mmHg 96%
    01:00 +3°C° 0 mm 4 mps 758 mmHg 96%
    02:00 +3°C° 0 mm 4 mps 758 mmHg 95%
    03:00 +3°C° 0 mm 4 mps 758 mmHg 95%
    04:00 +2°C° 0 mm 5 mps 757 mmHg 95%
    05:00 +2°C° 0 mm 5 mps 757 mmHg 95%
    06:00 +2°C° 0 mm 5 mps 756 mmHg 94%
    07:00 +2°C° 0 mm 5 mps 756 mmHg 93%
    08:00 +2°C° 0 mm 5 mps 756 mmHg 92%
    09:00 +3°C° 0 mm 5 mps 755 mmHg 90%
    10:00 +4°C° 0 mm 6 mps 754 mmHg 90%
    11:00 +4°C° 0 mm 6 mps 754 mmHg 89%
    12:00 +5°C° 0 mm 7 mps 753 mmHg 89%
    13:00 +6°C° 0 mm 7 mps 752 mmHg 87%
    14:00 +6°C° 0 mm 7 mps 750 mmHg 84%
    15:00 +6°C° 0 mm 7 mps 749 mmHg 82%
    16:00 +6°C° 0.3 mm 8 mps 748 mmHg 84%
    17:00 +6°C° 0.3 mm 8 mps 747 mmHg 85%
    18:00 +6°C° 0.3 mm 9 mps 745 mmHg 87%
    19:00 +5°C° 0.6 mm 8 mps 744 mmHg 85%
    20:00 +5°C° 0.6 mm 7 mps 744 mmHg 82%
    21:00 +4°C° 0.6 mm 7 mps 743 mmHg 80%
    22:00 +4°C° 0 mm 7 mps 741 mmHg 78%
    23:00 +4°C° 0 mm 8 mps 740 mmHg 76%

    27 January, Sunday

    Time Temperature Precipitation Wind Pressure Humidity
    00:00 +4°C° 0 mm 8 mps 739 mmHg 74%
    01:00 +4°C° 0.1 mm 8 mps 738 mmHg 77%
    02:00 +4°C° 0.1 mm 7 mps 736 mmHg 81%
    03:00 +4°C° 0.1 mm 7 mps 735 mmHg 84%
    04:00 +4°C° 0.1 mm 8 mps 735 mmHg 84%
    05:00 +4°C° 0.1 mm 8 mps 735 mmHg 84%
    06:00 +5°C° 0.1 mm 9 mps 735 mmHg 84%
    07:00 +3°C° 0.4 mm 10 mps 736 mmHg 81%
    08:00 +3°C° 0.4 mm 11 mps 737 mmHg 78%
    09:00 +2°C° 0.4 mm 12 mps 738 mmHg 75%
    10:00 +2°C° 0.1 mm 12 mps 740 mmHg 71%
    11:00 +3°C° 0.1 mm 12 mps 741 mmHg 68%
    12:00 +3°C° 0.1 mm 13 mps 742 mmHg 64%
    13:00 +2°C° 0 mm 12 mps 743 mmHg 62%
    14:00 +2°C° 0 mm 12 mps 744 mmHg 61%
    15:00 +2°C° 0 mm 12 mps 745 mmHg 59%
    16:00 0°C° 0 mm 12 mps 746 mmHg 59%
    17:00 -1°C° 0 mm 12 mps 746 mmHg 59%
    18:00 -1°C° 0 mm 11 mps 747 mmHg 58%
    19:00 -2°C° 0 mm 11 mps 748 mmHg 59%
    20:00 -2°C° 0 mm 10 mps 749 mmHg 60%
    21:00 -3°C° 0 mm 10 mps 750 mmHg 61%
    22:00 -3°C° 0 mm 9 mps 750 mmHg 62%
    23:00 -2°C° 0 mm 8 mps 751 mmHg 62%

    28 January, Monday

    Time Temperature Precipitation Wind Pressure Humidity
    00:00 -4°C° 0 mm 8 mps 751 mmHg 63%
    01:00 -3°C° 0 mm 7 mps 751 mmHg 64%
    02:00 -3°C° 0 mm 7 mps 752 mmHg 64%
    03:00 -3°C° 0 mm 6 mps 752 mmHg 65%
    04:00 -3°C° 0 mm 6 mps 752 mmHg 65%
    05:00 -2°C° 0 mm 5 mps 752 mmHg 65%
    06:00 -2°C° 0 mm 5 mps 752 mmHg 65%
    07:00 -2°C° 0 mm 5 mps 753 mmHg 66%
    08:00 -2°C° 0 mm 5 mps 753 mmHg 66%
    09:00 -1°C° 0 mm 5 mps 753 mmHg 66%
    10:00 0°C° 0 mm 5 mps 753 mmHg 64%
    11:00 +1°C° 0 mm 5 mps 753 mmHg 61%
    12:00 +2°C° 0 mm 5 mps 753 mmHg 59%
    13:00 +2°C° 0 mm 5 mps 752 mmHg 62%
    14:00 +4°C° 0 mm 4 mps 752 mmHg 65%
    15:00 +4°C° 0 mm 4 mps 751 mmHg 67%
    16:00 +2°C° 0.5 mm 5 mps 751 mmHg 73%
    17:00 +2°C° 0.5 mm 5 mps 750 mmHg 79%
    18:00 +2°C° 0.5 mm 6 mps 750 mmHg 85%
    19:00 +2°C° 0 mm 6 mps 750 mmHg 82%
    20:00 0°C° 0 mm 7 mps 750 mmHg 79%
    21:00 0°C° 0 mm 8 mps 750 mmHg 76%
    22:00 0°C° 0 mm 8 mps 750 mmHg 76%
    23:00 -1°C° 0 mm 8 mps 750 mmHg 76%

    29 January, Tuesday

    Time Temperature Precipitation Wind Pressure Humidity
    00:00 -1°C° 0 mm 8 mps 750 mmHg 76%
    01:00 -1°C° 0 mm 8 mps 750 mmHg 75%
    02:00 -1°C° 0 mm 8 mps 750 mmHg 75%
    03:00 -1°C° 0 mm 8 mps 751 mmHg 74%
    04:00 -1°C° 0 mm 8 mps 751 mmHg 74%
    05:00 -2°C° 0 mm 8 mps 751 mmHg 74%
    06:00 -2°C° 0 mm 8 mps 751 mmHg 73%
    07:00 -2°C° 0 mm 8 mps 751 mmHg 73%
    08:00 -2°C° 0 mm 7 mps 752 mmHg 73%
    09:00 -1°C° 0 mm 7 mps 752 mmHg 72%
    10:00 -1°C° 0.1 mm 8 mps 752 mmHg 70%
    11:00 0°C° 0.1 mm 8 mps 752 mmHg 67%
    12:00 +1°C° 0.1 mm 9 mps 751 mmHg 65%
    13:00 +1°C° 0.3 mm 8 mps 751 mmHg 67%
    14:00 +1°C° 0.3 mm 8 mps 751 mmHg 68%
    15:00 0°C° 0.3 mm 8 mps 751 mmHg 70%
    16:00 0°C° 0.1 mm 7 mps 751 mmHg 73%
    17:00 -1°C° 0.1 mm 7 mps 751 mmHg 75%
    18:00 -1°C° 0.1 mm 7 mps 751 mmHg 77%
    19:00 -1°C° 0 mm 6 mps 751 mmHg 78%
    20:00 -1°C° 0 mm 6 mps 752 mmHg 78%
    21:00 -2°C° 0 mm 6 mps 752 mmHg 79%
    22:00 -2°C° 0 mm 6 mps 752 mmHg 80%
    23:00 -1°C° 0 mm 5 mps 753 mmHg 80%
    Show more